Location: Asis
(14.1331°N, 120.9056°E)
Time: 17:22:56
(UTC+00:00)

OAO 2 Rocket - Pass Details

Date: 15 January 2026
Orbit: 668 x 734 km, 35.0° (Epoch: 13 February)

Event Time Altitude Azimuth Distance (km) Brightness Sun altitude
Rises 10:51:47 0° 315° (NW) 2,991 6.9 -15.6°
Reaches altitude 10° 10:54:20 10° 325° (NW) 2,078 6.0 -16.1°
Maximum altitude 10:58:44 34° 30° (NNE) 1,097 3.9 -17.2°
Enters shadow 10:59:42 31° 54° (NE) 1,167 3.9 -17.4°
